SCP
0 0 0 0 0 0 0 0 0 0 0 0 0 0 0 0 0 0 0 0 0 0 0 0 0 0 0 0 0 0 0 0 0 0 0 0 0 0 0 0 0 0 0
0 0 0 0 0 0 0 0 0 0 0 0 0 0 0 0 0 0 0 0 0 0 0 0 0 0 0 0 0 0 0 0 0 0 0 0 0 0 0 0 0 0 0
0 0 0 0 0 0 0 0 0 0 0 0 0 0 0 0 0 0 0 0 0 0 0 0 0 0 0 0 0 0 0 0 0 0 0 0 0 0 0 0 0 0 0
0 0 0 0 0 0 0 0 0 0 0 0 0 0 0 0 0 0 0 0 0 0 0 0 0 0 0 0 0 0 0 0 0 0 0 0 0 0 0 0 0 0 0
0 0 0 0 0 0 0 0 0 0 0 0 0 0 0 0 0 0 0 0 0 0 0 0 0 0 0 0 0 0 0 0 0 0 0 0 0 0 0 0 0 0 0
0 0 0 0 0 0 0 0 0 0 0 0 0 0 0 0 0 0 0 0 0 0 0 0 0 0 0 0 0 0 0 0 0 0 0 0 0 0 0 0 0 0 0
0 0 0 0 0 0 0 0 0 0 0 0 0 0 0 0 0 0 0 0 0 0 0 0 0 0 0 0 0 0 0 0 0 0 0 0 0 0 0 0 0 0 0
0 0 0 0 0 0 0 0 0 0 0 0 0 0 0 0 0 0 0 0 0 0 0 0 0 0 0 0 0 0 0 0 0 0 0 0 0 0 0 0 0 0 0
0 0 0 0 0 0 0 0 0 0 0 0 0 0 0 0 0 0 0 0 0 0 0 0 0 0 0 0 0 0 0 0 0 0 0 0 0 0 0 0 0 0 0
0 0 0 0 0 0 0 0 0 0 0 0 0 0 0 0 0 0 0 0 0 0 0 0 0 0 0 0 0 0 0 0 0 0 0 0 0 0 0 0 0 0 0
0 0 0 0 0 0 0 0 0 0 0 0 0 0 0 0 0 0 0 0 0 0 0 0 0 0 0 0 0 0 0 0 0 0 0 0 0 0 0 0 0 0 0
0 0 0 0 0 0 0 0 0 0 0 0 0 0 0 0 0 0 0 0 0 0 0 0 0 0 0 0 0 0 0 0 0 0 0 0 0 0 0 0 0 0 0
0 0 0 0 0 0 0 0 0 0 0 0 0 0 0 0 0 0 0 0 0 0 0 0 0 0 0 0 0 0 0 0 0 0 0 0 0 0 0 0 0 0 0
0 0 0 0 0 0 0 0 0 0 0 0 0 0 0 0 0 0 0 0 0 0 0 0 0 0 0 0 0 0 0 0 0 0 0 0 0 0 0 0 0 0 0
0 0 0 0 0 0 0 0 0 0 0 0 0 0 0 0 0 0 0 0 0 0 0 0 0 0 0 0 0 0 0 0 0 0 0 0 0 0 0 0 0 0 0
0 0 0 0 0 0 0 0 0 0 0 0 0 0 0 0 0 0 0 0 0 0 0 0 0 0 0 0 0 0 0 0 0 0 0 0 0 0 0 0 0 0 0
0 0 0 0 0 0 0 0 0 0 0 0 0 0 0 0 0 0 0 0 0 0 0 0 0 0 0 0 0 0 0 0 0 0 0 0 0 0 0 0 0 0 0
0 0 0 0 0 0 0 0 0 0 0 0 0 0 0 0 0 0 0 0 0 0 0 0 0 0 0 0 0 0 0 0 0 0 0 0 0 0 0 0 0 0 0
0 0 0 0 0 0 0 0 0 0 0 0 0 0 0 0 0 0 0 0 0 0 0 0 0 0 0 0 0 0 0 0 0 0 0 0 0 0 0 0 0 0 0
0 0 0 0 0 0 0 0 0 -0 0 0 0 0 0 0 0 0 0 0 0 0 0 0 0 0 0 0 0 0 0 0 0 0 0 0 0 0 0 0 0 0 0
0 0 0 0 0 0 0 0 0 0 0 0 0 0 0 0 0 0 0 0 0 0 0 0 0 0 0 0 0 0 0 0 0 0 0 0 0 0 0 0 0 0 0
0 0 0 0 0 0 0 0 0 0 0 -0 0 0 0 0 0 0 0 0 0 0 0 0 0 0 0 0 0 0 0 0 0 0 0 0 0 0 0 0 0 0 0
0 0 0 0 0 0 0 0 0 0 0 0 -0 0 0 0 0 0 0 0 0 0 0 0 0 0 0 0 0 0 0 0 0 0 0 0 0 0 0 0 0 0 0
0 0 0 0 0 0 0 0 0 0 0 0 0 0 0 0 0 0 0 0 0 0 0 0 0 0 0 0 0 0 0 0 0 0 0 0 0 0 0 0 0 0 0
0 0 0 0 0 0 0 0 0 0 0 0 0 0 0 0 0 0 0 0 0 0 0 0 0 0 0 0 0 0 0 0 0 0 0 0 0 0 0 0 0 0 0
0 0 0 0 0 0 0 0 0 0 0 0 0 0 0 0 0 0 0 0 0 0 0 0 0 0 0 0 0 0 0 0 0 0 0 0 0 0 0 0 0 0 0
Wind_Speed
3 3 2 1 1 1 1 1 1 1 2 2 2 3 3 3 2 2 2 5 5 5 5 6 6 5 5 5 5 5 5 4 4 4 4 4 4 3 3 4 4 4 5
3 3 3 2 1 1 1 1 1 1 1 1 2 2 3 2 2 2 2 3 4 5 5 5 5 5 4 4 4 4 4 4 3 3 3 3 3 3 3 3 3 3 3
4 3 3 2 2 2 1 1 2 2 2 2 2 2 2 2 3 2 2 1 2 3 5 5 5 4 4 3 3 3 3 3 3 3 3 2 2 2 2 2 2 3 3
5 4 3 2 2 2 2 2 2 2 2 2 1 1 1 2 3 2 2 2 1 1 2 4 4 4 3 3 2 2 2 2 2 2 2 2 2 2 2 2 2 2 2
5 4 3 3 3 2 1 2 2 2 2 2 1 1 1 2 2 2 2 2 1 1 1 2 3 3 2 2 2 1 1 1 1 2 2 2 2 2 2 2 2 2 2
5 4 3 3 3 3 2 2 2 2 2 2 2 2 1 1 1 1 2 1 1 2 2 1 1 1 2 2 1 0 0 0 1 1 1 2 2 2 2 2 2 3 3
5 4 3 3 3 3 3 3 2 3 2 2 3 2 2 1 1 0 1 1 1 1 2 2 1 1 0 2 2 1 1 1 1 1 1 2 3 3 3 3 3 4 3
5 4 4 4 3 3 3 3 3 2 1 1 2 2 1 2 1 0 1 1 1 1 1 2 2 1 1 0 1 2 2 2 3 3 3 3 3 4 4 5 5 4 4
4 4 5 5 4 4 4 3 4 3 2 0 1 3 3 3 1 1 1 1 1 1 1 1 2 2 2 1 1 1 2 3 4 4 5 5 5 5 5 5 5 5 5
4 4 4 5 5 4 4 4 3 2 4 2 0 0 1 2 2 1 2 1 1 1 2 1 2 2 2 1 2 2 3 4 4 5 6 6 6 6 7 7 6 6 6
4 4 4 3 4 3 4 4 3 3 3 3 2 1 1 1 1 2 2 2 1 2 2 2 2 2 2 2 2 3 3 4 5 6 7 7 7 7 8 8 7 6 6
3 4 4 3 3 3 4 4 4 4 3 2 2 1 2 2 1 2 2 2 2 2 2 2 2 2 2 2 3 3 3 4 6 7 7 8 8 8 8 8 8 7 7
3 4 4 4 3 3 3 3 4 4 4 4 3 1 1 1 1 1 2 1 1 2 1 2 2 2 2 2 2 4 4 5 6 7 8 8 8 8 8 8 8 8 8
4 5 4 4 4 4 4 3 3 3 3 3 3 2 1 1 1 2 2 2 1 1 2 3 2 2 2 2 3 3 3 5 7 8 9 9 9 8 8 8 8 8 8
4 5 5 4 4 4 4 4 3 3 3 3 3 3 2 1 1 1 2 2 3 2 3 3 2 2 2 2 4 2 3 6 7 8 7 7 7 7 7 8 8 8 8
4 5 5 5 4 4 4 4 3 3 3 3 2 2 2 1 1 1 2 2 2 2 3 3 3 2 2 3 4 3 4 6 7 8 7 6 7 8 8 8 8 9 9
6 6 6 6 6 6 5 4 4 4 4 3 3 3 3 2 2 2 2 2 2 2 3 3 2 2 2 3 3 3 3 3 4 8 8 7 7 8 8 9 9 9 10
6 6 6 6 6 6 6 6 5 5 5 5 4 3 3 2 2 2 2 3 2 2 2 3 3 2 3 3 3 3 3 3 3 7 8 8 8 8 9 9 9 10 10
6 6 6 6 6 6 6 6 6 5 5 5 5 5 4 4 4 3 3 3 2 2 2 2 3 2 2 2 2 3 3 3 3 5 7 8 8 8 9 9 10 10 10
6 6 6 6 6 6 6 5 5 5 5 5 5 5 5 5 5 5 4 4 3 2 2 2 3 2 2 2 1 2 3 2 3 3 5 5 7 8 9 10 10 10 10
6 6 5 5 5 5 5 6 5 5 5 4 4 4 5 6 7 6 4 4 4 3 2 3 3 2 2 2 3 2 3 3 3 2 2 3 4 4 5 8 9 10 11
5 5 5 5 5 4 6 7 5 5 5 5 4 4 4 5 6 8 8 7 6 5 4 3 3 4 5 3 2 2 2 2 4 2 2 4 3 4 4 4 9 11 11
5 5 5 5 5 5 6 7 6 4 5 5 5 4 3 3 4 4 5 6 6 8 8 5 5 6 4 4 3 3 3 4 5 3 2 4 3 5 4 5 10 11 11
5 5 5 5 5 5 6 6 6 4 3 4 4 5 4 4 4 4 3 3 4 4 6 5 5 6 5 4 4 4 4 3 4 3 2 4 3 4 4 4 9 10 9
4 4 4 5 5 4 6 6 5 3 3 3 3 4 4 4 5 4 3 3 3 4 5 7 7 6 7 6 4 2 2 2 4 3 2 3 3 3 4 4 5 8 8
4 4 3 4 4 4 5 6 5 3 3 3 2 3 5 5 5 5 4 4 4 4 3 2 3 4 4 4 5 4 4 3 3 3 2 2 2 2 4 3 2 3 4
Wind_Direction
158 153 149 144 149 148 147 126 113 119 114 108 114 116 116 116 104 81 60 77 91 108 112 114 112 111 105 99 94 88 86 84 86 79 72 65 57 48 52 54 49 42 34
158 157 155 160 169 176 175 147 129 123 119 112 106 117 127 124 109 98 77 69 81 100 111 113 114 115 111 105 97 83 79 74 75 72 66 57 46 45 42 39 34 29 24
156 154 158 166 176 165 141 107 98 90 100 99 97 112 123 128 118 110 100 78 69 82 101 108 111 113 110 104 96 87 77 67 56 54 51 49 45 38 37 28 20 19 13
158 154 160 172 164 141 128 124 115 93 80 91 98 98 107 120 122 122 106 98 86 74 90 104 106 109 111 110 103 88 78 60 39 36 35 43 46 28 20 11 2 4 2
161 159 164 168 155 135 128 138 110 109 102 89 98 88 88 115 128 126 126 122 120 113 97 94 95 91 97 114 113 92 85 62 38 45 37 24 14 10 4 348 343 345 342
163 156 155 158 153 141 129 118 112 94 114 124 104 70 53 90 117 134 150 139 136 134 120 104 88 71 81 86 80 72 121 142 93 60 15 357 339 329 321 326 338 324 319
162 155 153 153 154 150 149 136 116 102 81 102 97 63 13 24 90 142 147 137 147 156 140 143 155 130 86 59 41 19 347 239 241 267 309 321 311 303 299 295 305 311 305
165 161 159 160 156 140 135 135 123 111 106 116 125 117 73 350 326 280 177 164 175 183 168 161 168 166 159 189 320 2 344 318 284 272 281 297 303 302 296 294 297 301 305
163 167 165 161 160 152 159 160 151 136 149 159 129 144 153 195 253 301 258 208 196 215 222 205 191 187 181 185 235 291 323 318 301 289 284 287 290 291 294 300 300 298 306
161 159 161 164 165 160 162 172 157 147 147 156 179 30 162 154 154 213 299 283 245 232 239 243 219 208 194 196 230 264 290 300 298 294 287 285 287 289 294 292 296 299 297
165 161 158 162 169 165 165 166 157 154 156 163 168 162 89 66 118 159 221 270 286 254 244 233 221 216 209 201 224 248 270 282 290 292 290 287 286 288 291 293 292 296 300
168 165 159 163 172 167 171 171 164 164 164 163 166 162 161 163 187 172 193 222 251 267 258 246 228 224 221 210 233 249 262 274 285 288 290 289 290 291 291 290 290 296 295
177 180 171 171 176 178 173 168 167 173 173 173 176 188 192 193 172 172 169 198 239 271 270 260 241 230 228 221 236 247 255 272 282 283 285 287 293 294 291 289 289 292 294
183 178 175 179 178 175 171 169 171 180 175 177 182 180 192 210 179 171 165 163 225 269 260 255 250 228 234 231 244 248 256 275 283 283 283 286 290 293 291 288 288 289 292
179 173 174 178 177 176 174 171 176 183 177 186 188 185 190 214 193 184 170 167 169 225 252 244 241 237 230 232 248 238 246 271 280 283 284 288 291 291 292 292 291 290 289
178 176 177 181 180 180 175 174 175 180 175 188 186 180 196 210 202 189 184 185 178 191 239 245 242 248 241 245 254 248 250 271 278 281 277 279 284 286 287 287 286 286 285
182 187 184 183 185 184 180 179 184 180 181 188 191 191 207 201 203 203 186 185 194 184 237 272 267 263 239 246 264 258 259 257 268 277 277 277 280 283 284 285 285 285 284
186 189 183 182 187 186 183 183 187 188 188 194 202 198 212 204 208 205 198 206 210 205 209 260 279 274 256 246 248 252 263 263 260 274 280 278 278 281 282 284 286 286 284
184 185 182 185 188 188 187 188 189 192 195 199 202 204 211 204 218 217 213 214 217 229 219 232 263 269 269 265 263 274 273 272 270 275 283 281 280 281 282 286 288 287 282
183 187 190 190 189 188 189 190 190 192 195 202 206 207 207 208 213 211 215 214 209 217 223 227 255 262 262 267 248 262 282 273 276 285 285 285 288 287 284 285 286 284 282
189 187 188 189 187 188 192 188 189 193 196 202 212 216 217 218 219 214 214 208 201 207 218 225 241 260 252 247 247 247 266 282 279 258 273 277 279 276 276 281 283 278 278
183 182 188 188 191 202 200 195 191 194 199 201 211 222 227 221 225 231 233 226 212 207 215 219 238 244 249 240 241 249 262 282 279 246 242 272 262 266 266 260 274 281 281
179 185 189 189 195 202 199 198 197 194 201 206 207 212 226 233 223 219 236 240 236 238 230 220 228 239 240 230 226 243 246 252 256 253 246 273 267 265 263 269 279 281 280
184 190 190 190 192 203 202 203 198 194 201 210 209 208 213 219 219 211 215 231 238 240 243 233 228 236 238 231 223 230 242 261 270 258 217 259 269 267 277 273 281 280 280
188 190 188 189 192 205 207 203 192 186 206 222 220 213 210 212 227 225 207 224 251 265 264 253 248 248 248 247 239 222 235 252 276 268 224 237 268 288 285 272 275 279 282
188 183 186 191 193 203 210 205 196 184 204 220 227 225 224 226 233 231 209 210 234 252 253 270 269 270 255 245 242 222 212 233 262 268 234 223 264 305 299 277 272 283 285